| time (UTC) | temp F | wind direction | speed MPH | gust MPH | rain 1hr in | rain 24hr in | rain mn in | humidity % | barometer mb |
| 20260905203058 | 53 | 0 | 0.0 | 0.0 | 0.00 | 0.00 | 0.00 | 77 | 1005.4 |
| 20260905202541 | 53 | 0 | 0.0 | 0.0 | 0.00 | 0.00 | 0.00 | 76 | 1005.4 |
| 20260905202041 | 53 | 0 | 0.0 | 0.0 | 0.00 | 0.00 | 0.00 | 77 | 1005.3 |
| 20260905201604 | 53 | 0 | 0.0 | 0.0 | 0.00 | 0.00 | 0.00 | 77 | 1005.3 |
| 20260905201041 | 53 | 0 | 0.0 | 0.0 | 0.00 | 0.00 | 0.00 | 77 | 1005.2 |
| 20260905200539 | 54 | 0 | 0.0 | 0.0 | 0.00 | 0.00 | 0.00 | 77 | 1005.2 |
| 20260905200116 | 54 | 0 | 0.0 | 2.0 | 0.00 | 0.00 | 0.00 | 77 | 1005.2 |
| 20260905195541 | 54 | 0 | 0.0 | 2.0 | 0.00 | 0.00 | 0.00 | 77 | 1005.1 |
| 20260905195041 | 54 | 0 | 0.0 | 0.0 | 0.00 | 0.00 | 0.00 | 77 | 1005.1 |
| 20260905194610 | 54 | 0 | 0.0 | 2.0 | 0.00 | 0.00 | 0.00 | 77 | 1005.0 |
| 20260905194041 | 54 | 0 | 0.0 | 3.0 | 0.00 | 0.00 | 0.00 | 76 | 1004.9 |
| 20260905193540 | 54 | 275 | 0.0 | 3.0 | 0.00 | 0.00 | 0.00 | 76 | 1004.9 |
| 20260905193054 | 54 | 281 | 0.0 | 2.0 | 0.00 | 0.00 | 0.00 | 76 | 1004.9 |
| 20260905192541 | 54 | 0 | 0.0 | 0.0 | 0.00 | 0.00 | 0.00 | 75 | 1004.9 |
| 20260905192042 | 55 | 0 | 0.0 | 0.0 | 0.00 | 0.00 | 0.00 | 75 | 1004.9 |
| 20260905191552 | 55 | 0 | 0.0 | 0.0 | 0.00 | 0.00 | 0.00 | 75 | 1004.8 |
| 20260905191040 | 55 | 0 | 0.0 | 0.0 | 0.00 | 0.00 | 0.00 | 75 | 1004.8 |
| 20260905190542 | 55 | 0 | 0.0 | 0.0 | 0.00 | 0.00 | 0.00 | 76 | 1004.7 |
| 20260905185544 | 55 | 0 | 0.0 | 0.0 | 0.00 | 0.00 | 0.00 | 75 | 1004.7 |
| 20260905185046 | 56 | 0 | 0.0 | 0.0 | 0.00 | 0.00 | 0.00 | 75 | 1004.8 |
| 20260905184611 | 56 | 0 | 0.0 | 0.0 | 0.00 | 0.00 | 0.00 | 74 | 1004.8 |
| 20260905184041 | 56 | 0 | 0.0 | 0.0 | 0.00 | 0.00 | 0.00 | 74 | 1004.8 |
| 20260905183543 | 56 | 0 | 0.0 | 0.0 | 0.00 | 0.00 | 0.00 | 73 | 1004.7 |
| 20260905183055 | 56 | 0 | 0.0 | 0.0 | 0.00 | 0.00 | 0.00 | 73 | 1004.7 |
| 20260905182544 | 56 | 0 | 0.0 | 0.0 | 0.00 | 0.00 | 0.00 | 72 | 1004.7 |
| 20260905182042 | 57 | 0 | 0.0 | 0.0 | 0.00 | 0.00 | 0.00 | 72 | 1004.6 |
| 20260905181608 | 57 | 0 | 0.0 | 0.0 | 0.00 | 0.00 | 0.00 | 72 | 1004.5 |
| 20260905181042 | 57 | 0 | 0.0 | 0.0 | 0.00 | 0.00 | 0.00 | 71 | 1004.4 |
| 20260905180547 | 57 | 0 | 0.0 | 0.0 | 0.00 | 0.00 | 0.00 | 71 | 1004.3 |
| 20260905180112 | 57 | 0 | 0.0 | 2.0 | 0.00 | 0.00 | 0.00 | 71 | 1004.2 |
| 20260905175543 | 57 | 0 | 0.0 | 2.0 | 0.00 | 0.00 | 0.00 | 71 | 1004.2 |
| 20260905175045 | 58 | 0 | 0.0 | 0.0 | 0.00 | 0.00 | 0.00 | 71 | 1004.2 |
| 20260905174604 | 58 | 0 | 0.0 | 0.0 | 0.00 | 0.00 | 0.00 | 71 | 1004.2 |
| 20260905174045 | 58 | 0 | 0.0 | 0.0 | 0.00 | 0.00 | 0.00 | 71 | 1004.0 |
| 20260905173543 | 58 | 0 | 0.0 | 2.0 | 0.00 | 0.00 | 0.00 | 71 | 1003.9 |
| 20260905173057 | 58 | 0 | 0.0 | 4.0 | 0.00 | 0.00 | 0.00 | 70 | 1003.8 |
| 20260905172543 | 58 | 0 | 0.0 | 4.0 | 0.00 | 0.00 | 0.00 | 70 | 1003.8 |
| 20260905172043 | 59 | 329 | 1.0 | 4.0 | 0.00 | 0.00 | 0.00 | 70 | 1003.7 |
| 20260905171607 | 59 | 328 | 0.0 | 7.0 | 0.00 | 0.00 | 0.00 | 69 | 1003.7 |
| 20260905171043 | 59 | 11 | 2.0 | 7.0 | 0.00 | 0.00 | 0.00 | 69 | 1003.8 |
| 20260905170543 | 60 | 252 | 2.0 | 6.0 | 0.00 | 0.00 | 0.00 | 69 | 1003.7 |
| 20260905170104 | 60 | 5 | 3.0 | 6.0 | 0.00 | 0.00 | 0.00 | 68 | 1003.6 |
| 20260905165543 | 60 | 320 | 2.0 | 8.0 | 0.00 | 0.00 | 0.00 | 68 | 1003.5 |
| 20260905165043 | 61 | 317 | 3.0 | 8.0 | 0.00 | 0.00 | 0.00 | 68 | 1003.5 |
| 20260905164558 | 61 | 342 | 4.0 | 10.0 | 0.00 | 0.00 | 0.00 | 68 | 1003.5 |
| 20260905164043 | 62 | 273 | 3.0 | 10.0 | 0.00 | 0.00 | 0.00 | 68 | 1003.4 |
| 20260905163543 | 62 | 312 | 4.0 | 10.0 | 0.00 | 0.00 | 0.00 | 69 | 1003.4 |
| 20260905163104 | 62 | 318 | 3.0 | 9.0 | 0.00 | 0.00 | 0.00 | 69 | 1003.4 |
| 20260905162544 | 62 | 284 | 3.0 | 10.0 | 0.00 | 0.00 | 0.00 | 70 | 1003.4 |
| 20260905162044 | 62 | 343 | 4.0 | 10.0 | 0.00 | 0.00 | 0.00 | 70 | 1003.4 |
| 20260905161606 | 62 | 288 | 3.0 | 10.0 | 0.00 | 0.00 | 0.00 | 70 | 1003.4 |
| 20260905161043 | 62 | 257 | 3.0 | 12.0 | 0.00 | 0.00 | 0.00 | 69 | 1003.4 |
| 20260905160544 | 62 | 290 | 5.0 | 12.0 | 0.00 | 0.00 | 0.00 | 69 | 1003.4 |
| 20260905160058 | 62 | 13 | 4.0 | 10.0 | 0.00 | 0.00 | 0.00 | 69 | 1003.3 |
| 20260905155542 | 62 | 297 | 3.0 | 11.0 | 0.00 | 0.00 | 0.00 | 69 | 1003.2 |
| 20260905155042 | 62 | 265 | 4.0 | 11.0 | 0.00 | 0.00 | 0.00 | 68 | 1003.1 |
| 20260905154602 | 63 | 292 | 4.0 | 9.0 | 0.00 | 0.00 | 0.00 | 67 | 1003.1 |
| 20260905154046 | 63 | 286 | 5.0 | 11.0 | 0.00 | 0.00 | 0.00 | 66 | 1003.0 |
| 20260905153542 | 63 | 312 | 5.0 | 11.0 | 0.00 | 0.00 | 0.00 | 66 | 1003.0 |
| 20260905153100 | 63 | 292 | 5.0 | 11.0 | 0.00 | 0.00 | 0.00 | 65 | 1003.0 |
| 20260905152543 | 63 | 274 | 4.0 | 11.0 | 0.00 | 0.00 | 0.00 | 65 | 1003.0 |
| 20260905152043 | 64 | 296 | 5.0 | 10.0 | 0.00 | 0.00 | 0.00 | 64 | 1003.0 |
| 20260905151602 | 64 | 309 | 3.0 | 10.0 | 0.00 | 0.00 | 0.00 | 63 | 1002.9 |
| 20260905151043 | 64 | 299 | 4.0 | 10.0 | 0.00 | 0.00 | 0.00 | 62 | 1003.0 |
| 20260905150546 | 65 | 331 | 3.0 | 9.0 | 0.00 | 0.00 | 0.00 | 62 | 1002.9 |
| 20260905150059 | 65 | 319 | 2.0 | 9.0 | 0.00 | 0.00 | 0.00 | 61 | 1002.8 |
| 20260905145543 | 65 | 298 | 4.0 | 9.0 | 0.00 | 0.00 | 0.00 | 60 | 1002.8 |
| 20260905145043 | 65 | 254 | 2.0 | 8.0 | 0.00 | 0.00 | 0.00 | 59 | 1002.8 |
| 20260905144555 | 66 | 322 | 2.0 | 8.0 | 0.00 | 0.00 | 0.00 | 59 | 1002.8 |
| 20260905144045 | 66 | 319 | 3.0 | 9.0 | 0.00 | 0.00 | 0.00 | 59 | 1002.7 |
| 20260905143543 | 66 | 348 | 3.0 | 9.0 | 0.00 | 0.00 | 0.00 | 58 | 1002.7 |
| 20260905143105 | 67 | 333 | 2.0 | 8.0 | 0.00 | 0.00 | 0.00 | 58 | 1002.7 |
| 20260905142543 | 67 | 341 | 2.0 | 9.0 | 0.00 | 0.00 | 0.00 | 58 | 1002.7 |
| 20260905142043 | 67 | 290 | 3.0 | 11.0 | 0.00 | 0.00 | 0.00 | 58 | 1002.6 |
| 20260905141603 | 67 | 321 | 3.0 | 11.0 | 0.00 | 0.00 | 0.00 | 57 | 1002.6 |
| 20260905141043 | 68 | 313 | 2.0 | 8.0 | 0.00 | 0.00 | 0.00 | 56 | 1002.7 |
| 20260905140543 | 68 | 315 | 2.0 | 10.0 | 0.00 | 0.00 | 0.00 | 56 | 1002.6 |
| 20260905140059 | 68 | 352 | 3.0 | 10.0 | 0.00 | 0.00 | 0.00 | 56 | 1002.5 |
| 20260905135547 | 68 | 211 | 4.0 | 10.0 | 0.00 | 0.00 | 0.00 | 56 | 1002.4 |
| 20260905135043 | 67 | 345 | 4.0 | 10.0 | 0.00 | 0.00 | 0.00 | 56 | 1002.4 |
| 20260905134557 | 67 | 314 | 3.0 | 11.0 | 0.00 | 0.00 | 0.00 | 57 | 1002.4 |
| 20260905134046 | 67 | 351 | 5.0 | 12.0 | 0.00 | 0.00 | 0.00 | 56 | 1002.4 |
| 20260905133542 | 68 | 360 | 3.0 | 12.0 | 0.00 | 0.00 | 0.00 | 55 | 1002.4 |
| 20260905133102 | 68 | 5 | 4.0 | 10.0 | 0.00 | 0.00 | 0.00 | 56 | 1002.4 |
| 20260905132543 | 68 | 333 | 4.0 | 10.0 | 0.00 | 0.00 | 0.00 | 55 | 1002.3 |
| 20260905132044 | 68 | 296 | 3.0 | 10.0 | 0.00 | 0.00 | 0.00 | 57 | 1002.4 |
| 20260905131603 | 69 | 263 | 4.0 | 11.0 | 0.00 | 0.00 | 0.00 | 56 | 1002.2 |
| 20260905131043 | 69 | 273 | 1.0 | 11.0 | 0.00 | 0.00 | 0.00 | 57 | 1002.2 |
| 20260905130546 | 69 | 279 | 4.0 | 11.0 | 0.00 | 0.00 | 0.00 | 55 | 1002.1 |
| 20260905130057 | 69 | 25 | 2.0 | 9.0 | 0.00 | 0.00 | 0.00 | 55 | 1002.1 |
| 20260905125547 | 69 | 319 | 2.0 | 8.0 | 0.00 | 0.00 | 0.00 | 54 | 1002.0 |
| 20260905125043 | 69 | 305 | 3.0 | 9.0 | 0.00 | 0.00 | 0.00 | 54 | 1001.9 |
| 20260905124604 | 68 | 28 | 2.0 | 9.0 | 0.00 | 0.00 | 0.00 | 55 | 1001.9 |
| 20260905124042 | 68 | 335 | 2.0 | 9.0 | 0.00 | 0.00 | 0.00 | 54 | 1001.8 |
| 20260905123542 | 68 | 333 | 3.0 | 10.0 | 0.00 | 0.00 | 0.00 | 54 | 1001.9 |
| 20260905123108 | 68 | 269 | 3.0 | 10.0 | 0.00 | 0.00 | 0.00 | 54 | 1001.8 |
| 20260905122543 | 68 | 298 | 4.0 | 9.0 | 0.00 | 0.00 | 0.00 | 52 | 1001.8 |
| 20260905122042 | 68 | 26 | 3.0 | 8.0 | 0.00 | 0.00 | 0.00 | 52 | 1001.8 |
| 20260905121554 | 68 | 276 | 3.0 | 8.0 | 0.00 | 0.00 | 0.00 | 52 | 1001.9 |
| 20260905121043 | 69 | 280 | 4.0 | 9.0 | 0.00 | 0.00 | 0.00 | 52 | 1001.7 |
| 20260905120546 | 69 | 304 | 4.0 | 9.0 | 0.00 | 0.00 | 0.00 | 52 | 1001.7 |
| 20260905120104 | 69 | 292 | 3.0 | 8.0 | 0.00 | 0.00 | 0.00 | 51 | 1001.7 |
| 20260905115542 | 69 | 290 | 2.0 | 8.0 | 0.00 | 0.00 | 0.00 | 52 | 1001.7 |
| 20260905115043 | 69 | 341 | 3.0 | 8.0 | 0.00 | 0.00 | 0.00 | 51 | 1001.7 |
| 20260905114611 | 70 | 285 | 3.0 | 8.0 | 0.00 | 0.00 | 0.00 | 50 | 1001.6 |
| 20260905114043 | 70 | 329 | 3.0 | 8.0 | 0.00 | 0.00 | 0.00 | 50 | 1001.5 |
| 20260905113543 | 70 | 303 | 3.0 | 10.0 | 0.00 | 0.00 | 0.00 | 50 | 1001.5 |
| 20260905113053 | 71 | 319 | 4.0 | 10.0 | 0.00 | 0.00 | 0.00 | 49 | 1001.5 |
| 20260905112543 | 71 | 306 | 4.0 | 10.0 | 0.00 | 0.00 | 0.00 | 50 | 1001.4 |
| 20260905112046 | 71 | 307 | 3.0 | 8.0 | 0.00 | 0.00 | 0.00 | 49 | 1001.4 |
| 20260905111605 | 71 | 333 | 3.0 | 8.0 | 0.00 | 0.00 | 0.00 | 49 | 1001.4 |
| 20260905111043 | 71 | 321 | 2.0 | 8.0 | 0.00 | 0.00 | 0.00 | 49 | 1001.3 |
| 20260905110543 | 71 | 264 | 2.0 | 8.0 | 0.00 | 0.00 | 0.00 | 49 | 1001.3 |
| 20260905110104 | 71 | 341 | 2.0 | 8.0 | 0.00 | 0.00 | 0.00 | 50 | 1001.3 |
| 20260905105542 | 71 | 329 | 4.0 | 9.0 | 0.00 | 0.00 | 0.00 | 49 | 1001.2 |
| 20260905105043 | 71 | 342 | 2.0 | 9.0 | 0.00 | 0.00 | 0.00 | 52 | 1001.1 |
| 20260905104558 | 70 | 276 | 3.0 | 8.0 | 0.00 | 0.00 | 0.00 | 51 | 1001.1 |
| 20260905104046 | 70 | 326 | 0.0 | 4.0 | 0.00 | 0.00 | 0.00 | 51 | 1001.2 |
| 20260905103543 | 69 | 0 | 1.0 | 5.0 | 0.00 | 0.00 | 0.00 | 51 | 1001.1 |
| 20260905103101 | 68 | 113 | 2.0 | 5.0 | 0.00 | 0.00 | 0.00 | 51 | 1001.0 |
| 20260905102545 | 68 | 0 | 0.0 | 4.0 | 0.00 | 0.00 | 0.00 | 53 | 1001.0 |
| 20260905102042 | 67 | 0 | 1.0 | 4.0 | 0.00 | 0.00 | 0.00 | 54 | 1000.9 |
| 20260905101601 | 67 | 120 | 1.0 | 4.0 | 0.00 | 0.00 | 0.00 | 55 | 1000.9 |
| 20260905101042 | 66 | 0 | 2.0 | 4.0 | 0.00 | 0.00 | 0.00 | 55 | 1000.9 |
| 20260905100542 | 65 | 0 | 0.0 | 4.0 | 0.00 | 0.00 | 0.00 | 57 | 1000.9 |
| 20260905100107 | 65 | 0 | 1.0 | 4.0 | 0.00 | 0.00 | 0.00 | 57 | 1000.9 |
| 20260905095542 | 64 | 122 | 0.0 | 4.0 | 0.00 | 0.00 | 0.00 | 60 | 1000.9 |
| 20260905095043 | 64 | 0 | 0.0 | 4.0 | 0.00 | 0.00 | 0.00 | 60 | 1000.9 |
| 20260905094612 | 63 | 118 | 0.0 | 4.0 | 0.00 | 0.00 | 0.00 | 59 | 1000.9 |
| 20260905094042 | 63 | 114 | 1.0 | 4.0 | 0.00 | 0.00 | 0.00 | 59 | 1000.8 |
| 20260905093543 | 63 | 114 | 1.0 | 6.0 | 0.00 | 0.00 | 0.00 | 59 | 1000.9 |
| 20260905093102 | 62 | 98 | 2.0 | 6.0 | 0.00 | 0.00 | 0.00 | 59 | 1000.8 |
| 20260905092544 | 62 | 127 | 2.0 | 6.0 | 0.00 | 0.00 | 0.00 | 60 | 1000.7 |
| 20260905092042 | 62 | 101 | 2.0 | 6.0 | 0.00 | 0.00 | 0.00 | 60 | 1000.7 |
| 20260905091609 | 61 | 121 | 2.0 | 6.0 | 0.00 | 0.00 | 0.00 | 61 | 1000.7 |
| 20260905091042 | 61 | 109 | 2.0 | 6.0 | 0.00 | 0.00 | 0.00 | 61 | 1000.7 |
| 20260905090542 | 61 | 105 | 1.0 | 4.0 | 0.00 | 0.00 | 0.00 | 63 | 1000.6 |
| 20260905085542 | 60 | 119 | 1.0 | 4.0 | 0.00 | 0.00 | 0.00 | 63 | 1000.6 |
| 20260905085042 | 60 | 101 | 1.0 | 6.0 | 0.00 | 0.00 | 0.00 | 64 | 1000.6 |
| 20260905084611 | 60 | 111 | 0.0 | 6.0 | 0.00 | 0.00 | 0.00 | 65 | 1000.6 |
| 20260905084043 | 60 | 0 | 0.0 | 6.0 | 0.00 | 0.00 | 0.00 | 66 | 1000.6 |
| 20260905083548 | 60 | 0 | 0.0 | 4.0 | 0.00 | 0.00 | 0.00 | 65 | 1000.5 |
| 20260905083101 | 60 | 108 | 1.0 | 4.0 | 0.00 | 0.00 | 0.00 | 65 | 1000.5 |
| 20260905082542 | 59 | 111 | 0.0 | 3.0 | 0.00 | 0.00 | 0.00 | 66 | 1000.4 |
| 20260905082046 | 59 | 103 | 1.0 | 4.0 | 0.00 | 0.00 | 0.00 | 67 | 1000.5 |
| 20260905081616 | 58 | 0 | 1.0 | 7.0 | 0.00 | 0.00 | 0.00 | 68 | 1000.4 |
| 20260905081042 | 58 | 114 | 2.0 | 7.0 | 0.00 | 0.00 | 0.00 | 68 | 1000.4 |
| 20260905080544 | 58 | 105 | 1.0 | 4.0 | 0.00 | 0.00 | 0.00 | 70 | 1000.4 |
| 20260905080057 | 57 | 0 | 1.0 | 3.0 | 0.00 | 0.00 | 0.00 | 70 | 1000.3 |
| 20260905075543 | 57 | 109 | 0.0 | 3.0 | 0.00 | 0.00 | 0.00 | 71 | 1000.4 |
| 20260905075045 | 57 | 0 | 1.0 | 4.0 | 0.00 | 0.00 | 0.00 | 70 | 1000.4 |
| 20260905074551 | 56 | 105 | 1.0 | 4.0 | 0.00 | 0.00 | 0.00 | 69 | 1000.4 |
| 20260905074044 | 56 | 116 | 1.0 | 6.0 | 0.00 | 0.00 | 0.00 | 70 | 1000.4 |
| 20260905073545 | 56 | 111 | 2.0 | 6.0 | 0.00 | 0.00 | 0.00 | 71 | 1000.4 |
| 20260905073102 | 56 | 113 | 2.0 | 4.0 | 0.00 | 0.00 | 0.00 | 71 | 1000.4 |
| 20260905072542 | 56 | 0 | 2.0 | 4.0 | 0.00 | 0.00 | 0.00 | 73 | 1000.4 |
| 20260905072043 | 55 | 115 | 0.0 | 4.0 | 0.00 | 0.00 | 0.00 | 76 | 1000.4 |
| 20260905071601 | 55 | 0 | 0.0 | 0.0 | 0.00 | 0.00 | 0.00 | 77 | 1000.3 |
| 20260905071046 | 54 | 0 | 0.0 | 0.0 | 0.00 | 0.00 | 0.00 | 79 | 1000.2 |
| 20260905070543 | 54 | 0 | 0.0 | 0.0 | 0.00 | 0.00 | 0.00 | 79 | 1000.2 |
| 20260905070055 | 54 | 0 | 0.0 | 0.0 | 0.00 | 0.00 | 0.00 | 80 | 1000.1 |
| 20260905065543 | 54 | 0 | 0.0 | 0.0 | 0.00 | 0.00 | 0.00 | 80 | 1000.2 |
| 20260905065043 | 53 | 0 | 0.0 | 0.0 | 0.00 | 0.00 | 0.00 | 81 | 1000.2 |
| 20260905064557 | 53 | 0 | 0.0 | 0.0 | 0.00 | 0.00 | 0.00 | 81 | 1000.1 |
| 20260905064044 | 53 | 0 | 0.0 | 0.0 | 0.00 | 0.00 | 0.00 | 82 | 1000.1 |
| 20260905063542 | 53 | 0 | 0.0 | 0.0 | 0.00 | 0.00 | 0.00 | 81 | 1000.1 |
| 20260905063114 | 52 | 0 | 0.0 | 0.0 | 0.00 | 0.00 | 0.00 | 81 | 1000.0 |
| 20260905062551 | 52 | 0 | 0.0 | 0.0 | 0.00 | 0.00 | 0.00 | 81 | 999.9 |
| 20260905062043 | 52 | 0 | 0.0 | 0.0 | 0.00 | 0.00 | 0.00 | 81 | 999.8 |
| 20260905061611 | 52 | 0 | 0.0 | 0.0 | 0.00 | 0.00 | 0.00 | 81 | 999.8 |
| 20260905061043 | 52 | 0 | 0.0 | 0.0 | 0.00 | 0.00 | 0.00 | 81 | 1000.0 |
| 20260905060542 | 51 | 0 | 0.0 | 0.0 | 0.00 | 0.00 | 0.00 | 80 | 999.9 |
| 20260905060053 | 51 | 0 | 0.0 | 0.0 | 0.00 | 0.00 | 0.00 | 80 | 999.9 |
| 20260905055542 | 51 | 0 | 0.0 | 0.0 | 0.00 | 0.00 | 0.00 | 80 | 999.8 |
| 20260905055044 | 51 | 0 | 0.0 | 0.0 | 0.00 | 0.00 | 0.00 | 80 | 999.9 |
| 20260905054603 | 51 | 0 | 0.0 | 0.0 | 0.00 | 0.00 | 0.00 | 80 | 999.8 |
| 20260905054044 | 51 | 0 | 0.0 | 0.0 | 0.00 | 0.00 | 0.00 | 80 | 999.7 |
| 20260905053542 | 50 | 0 | 0.0 | 0.0 | 0.00 | 0.00 | 0.00 | 80 | 999.7 |
| 20260905053059 | 50 | 0 | 0.0 | 0.0 | 0.00 | 0.00 | 0.00 | 80 | 999.8 |
| 20260905052542 | 50 | 0 | 0.0 | 0.0 | 0.00 | 0.00 | 0.00 | 79 | 999.7 |
| 20260905052045 | 50 | 0 | 0.0 | 0.0 | 0.00 | 0.00 | 0.00 | 79 | 999.7 |
| 20260905051556 | 50 | 0 | 0.0 | 2.0 | 0.00 | 0.00 | 0.00 | 79 | 999.7 |
| 20260905051042 | 50 | 0 | 0.0 | 2.0 | 0.00 | 0.00 | 0.00 | 79 | 999.7 |
| 20260905050542 | 50 | 0 | 0.0 | 3.0 | 0.00 | 0.00 | 0.00 | 79 | 999.7 |
| 20260905050053 | 50 | 0 | 0.0 | 3.0 | 0.00 | 0.00 | 0.00 | 79 | 999.7 |
| 20260905045546 | 50 | 346 | 1.0 | 3.0 | 0.00 | 0.00 | 0.00 | 79 | 999.7 |
| 20260905045042 | 50 | 0 | 0.0 | 2.0 | 0.00 | 0.00 | 0.00 | 79 | 999.7 |
| 20260905044553 | 50 | 0 | 1.0 | 2.0 | 0.00 | 0.00 | 0.00 | 79 | 999.7 |
| 20260905044045 | 50 | 341 | 0.0 | 2.0 | 0.00 | 0.00 | 0.00 | 79 | 999.7 |
| 20260905043542 | 50 | 0 | 0.0 | 1.0 | 0.00 | 0.00 | 0.00 | 79 | 999.6 |
| 20260905043119 | 50 | 0 | 0.0 | 2.0 | 0.00 | 0.00 | 0.00 | 78 | 999.7 |
| 20260905042541 | 50 | 341 | 0.0 | 3.0 | 0.00 | 0.00 | 0.00 | 77 | 999.7 |
| 20260905042042 | 50 | 336 | 1.0 | 3.0 | 0.00 | 0.00 | 0.00 | 77 | 999.6 |
| 20260905041604 | 50 | 336 | 0.0 | 3.0 | 0.00 | 0.00 | 0.00 | 77 | 999.6 |
| 20260905041041 | 50 | 336 | 0.0 | 3.0 | 0.00 | 0.00 | 0.00 | 77 | 999.6 |
| 20260905040541 | 50 | 0 | 0.0 | 4.0 | 0.00 | 0.00 | 0.00 | 76 | 999.6 |
| 20260905040122 | 50 | 348 | 2.0 | 4.0 | 0.00 | 0.00 | 0.00 | 76 | 999.6 |
| 20260905035542 | 50 | 344 | 1.0 | 4.0 | 0.00 | 0.00 | 0.00 | 76 | 999.6 |
| 20260905035042 | 51 | 351 | 1.0 | 3.0 | 0.00 | 0.00 | 0.00 | 76 | 999.5 |
| 20260905034600 | 51 | 349 | 0.0 | 3.0 | 0.00 | 0.00 | 0.00 | 76 | 999.5 |
| 20260905034046 | 51 | 343 | 2.0 | 3.0 | 0.00 | 0.00 | 0.00 | 75 | 999.4 |
| 20260905033541 | 51 | 352 | 1.0 | 3.0 | 0.00 | 0.00 | 0.00 | 75 | 999.4 |
| 20260905033110 | 51 | 0 | 1.0 | 3.0 | 0.00 | 0.00 | 0.00 | 75 | 999.4 |
| 20260905032544 | 51 | 0 | 0.0 | 2.0 | 0.00 | 0.00 | 0.00 | 75 | 999.4 |
| 20260905032043 | 52 | 0 | 0.0 | 3.0 | 0.00 | 0.00 | 0.00 | 75 | 999.3 |
| 20260905031606 | 52 | 0 | 1.0 | 3.0 | 0.00 | 0.00 | 0.00 | 75 | 999.3 |
| 20260905031043 | 52 | 352 | 1.0 | 3.0 | 0.00 | 0.00 | 0.00 | 74 | 999.3 |
| 20260905030542 | 52 | 352 | 1.0 | 4.0 | 0.00 | 0.00 | 0.00 | 74 | 999.2 |
| 20260905030101 | 52 | 345 | 2.0 | 4.0 | 0.00 | 0.00 | 0.00 | 74 | 999.2 |
| 20260905025541 | 53 | 350 | 1.0 | 3.0 | 0.00 | 0.00 | 0.00 | 74 | 999.2 |
| 20260905025043 | 53 | 350 | 0.0 | 3.0 | 0.00 | 0.00 | 0.00 | 74 | 999.3 |
| 20260905024602 | 53 | 0 | 1.0 | 3.0 | 0.00 | 0.00 | 0.00 | 73 | 999.2 |
| 20260905024041 | 53 | 332 | 0.0 | 3.0 | 0.00 | 0.00 | 0.00 | 73 | 999.2 |
| 20260905023543 | 53 | 0 | 0.0 | 0.0 | 0.00 | 0.00 | 0.00 | 73 | 999.3 |
| 20260905023105 | 53 | 0 | 0.0 | 0.0 | 0.00 | 0.00 | 0.00 | 73 | 999.2 |
| 20260905022542 | 54 | 0 | 0.0 | 0.0 | 0.00 | 0.00 | 0.00 | 73 | 999.3 |
| 20260905022042 | 54 | 0 | 0.0 | 0.0 | 0.00 | 0.00 | 0.00 | 73 | 999.2 |
| 20260905021552 | 54 | 0 | 0.0 | 0.0 | 0.00 | 0.00 | 0.00 | 73 | 999.3 |
| 20260905021046 | 54 | 0 | 0.0 | 1.0 | 0.00 | 0.00 | 0.00 | 73 | 999.2 |
| 20260905020542 | 54 | 0 | 0.0 | 1.0 | 0.00 | 0.00 | 0.00 | 73 | 999.2 |
| 20260905020058 | 54 | 0 | 0.0 | 2.0 | 0.00 | 0.00 | 0.00 | 72 | 999.2 |
| 20260905015542 | 54 | 0 | 0.0 | 2.0 | 0.00 | 0.00 | 0.00 | 72 | 999.3 |
| 20260905015042 | 54 | 86 | 0.0 | 1.0 | 0.00 | 0.00 | 0.00 | 72 | 999.2 |
| 20260905014557 | 55 | 0 | 0.0 | 4.0 | 0.00 | 0.00 | 0.00 | 72 | 999.2 |
| 20260905014045 | 54 | 0 | 0.0 | 4.0 | 0.00 | 0.00 | 0.00 | 72 | 999.2 |
| 20260905013541 | 55 | 0 | 0.0 | 4.0 | 0.00 | 0.00 | 0.00 | 72 | 999.2 |
| 20260905013103 | 55 | 5 | 0.0 | 3.0 | 0.00 | 0.00 | 0.00 | 72 | 999.2 |
| 20260905012542 | 55 | 0 | 0.0 | 3.0 | 0.00 | 0.00 | 0.00 | 73 | 999.0 |
| 20260905012044 | 55 | 0 | 1.0 | 3.0 | 0.00 | 0.00 | 0.00 | 73 | 999.1 |
| 20260905011557 | 55 | 0 | 0.0 | 3.0 | 0.00 | 0.00 | 0.00 | 73 | 999.1 |
| 20260905011042 | 55 | 0 | 0.0 | 3.0 | 0.00 | 0.00 | 0.00 | 73 | 999.1 |
| 20260905010541 | 54 | 117 | 0.0 | 3.0 | 0.00 | 0.00 | 0.00 | 73 | 999.0 |
| 20260905010054 | 54 | 57 | 0.0 | 2.0 | 0.00 | 0.00 | 0.00 | 73 | 998.9 |
| 20260905005541 | 54 | 0 | 0.0 | 4.0 | 0.00 | 0.00 | 0.00 | 74 | 999.0 |
| 20260905005042 | 54 | 0 | 0.0 | 4.0 | 0.00 | 0.00 | 0.00 | 74 | 999.0 |
| 20260905004613 | 54 | 104 | 0.0 | 4.0 | 0.00 | 0.00 | 0.00 | 74 | 999.0 |
| 20260905004042 | 54 | 0 | 0.0 | 4.0 | 0.00 | 0.00 | 0.00 | 74 | 999.0 |
| 20260905003545 | 54 | 14 | 0.0 | 6.0 | 0.00 | 0.00 | 0.00 | 74 | 999.0 |
| 20260905003101 | 54 | 103 | 0.0 | 6.0 | 0.00 | 0.00 | 0.00 | 74 | 999.1 |
| 20260905002546 | 54 | 0 | 0.0 | 5.0 | 0.00 | 0.00 | 0.00 | 74 | 999.0 |
| 20260905002042 | 54 | 0 | 0.0 | 4.0 | 0.00 | 0.00 | 0.00 | 75 | 999.1 |
| 20260905001558 | 54 | 0 | 0.0 | 4.0 | 0.00 | 0.00 | 0.00 | 75 | 999.1 |
| 20260905001042 | 54 | 96 | 0.0 | 4.0 | 0.00 | 0.00 | 0.00 | 75 | 999.1 |
| 20260905000544 | 54 | 0 | 0.0 | 3.0 | 0.00 | 0.00 | 0.00 | 75 | 999.1 |
| 20260905000054 | 53 | 0 | 0.0 | 3.0 | 0.00 | 0.00 | 0.00 | 76 | 998.9 |
| 20260904235544 | 53 | 0 | 0.0 | 3.0 | 0.00 | 0.00 | 0.00 | 76 | 999.0 |
| 20260904235044 | 53 | 0 | 0.0 | 0.0 | 0.00 | 0.00 | 0.00 | 76 | 999.0 |
| 20260904234556 | 53 | 0 | 0.0 | 2.0 | 0.00 | 0.00 | 0.00 | 76 | 999.1 |
| 20260904234042 | 53 | 0 | 0.0 | 3.0 | 0.00 | 0.00 | 0.00 | 76 | 999.0 |
| 20260904233542 | 53 | 352 | 1.0 | 3.0 | 0.00 | 0.00 | 0.00 | 76 | 999.1 |
| 20260904233108 | 53 | 336 | 1.0 | 2.0 | 0.00 | 0.00 | 0.00 | 76 | 999.1 |
| 20260904232543 | 53 | 317 | 1.0 | 2.0 | 0.00 | 0.00 | 0.00 | 76 | 999.1 |
| 20260904232043 | 53 | 317 | 0.0 | 2.0 | 0.00 | 0.00 | 0.00 | 76 | 999.1 |
| 20260904231608 | 53 | 0 | 0.0 | 0.0 | 0.00 | 0.00 | 0.00 | 76 | 999.1 |
| 20260904231042 | 53 | 0 | 0.0 | 1.0 | 0.00 | 0.00 | 0.00 | 76 | 999.1 |
| 20260904230542 | 53 | 0 | 0.0 | 1.0 | 0.00 | 0.00 | 0.00 | 76 | 999.0 |
| 20260904230112 | 53 | 0 | 0.0 | 1.0 | 0.00 | 0.00 | 0.00 | 76 | 999.1 |
| 20260904225544 | 53 | 0 | 0.0 | 0.0 | 0.00 | 0.00 | 0.00 | 76 | 999.1 |
| 20260904225042 | 53 | 0 | 0.0 | 0.0 | 0.00 | 0.00 | 0.00 | 76 | 999.0 |
| 20260904224604 | 53 | 0 | 0.0 | 0.0 | 0.00 | 0.00 | 0.00 | 76 | 999.0 |
| 20260904224044 | 53 | 0 | 0.0 | 0.0 | 0.00 | 0.00 | 0.00 | 76 | 999.0 |
| 20260904223541 | 53 | 0 | 0.0 | 0.0 | 0.00 | 0.00 | 0.00 | 76 | 999.0 |
| 20260904223106 | 53 | 0 | 0.0 | 0.0 | 0.00 | 0.00 | 0.00 | 76 | 999.1 |
| 20260904222543 | 53 | 0 | 0.0 | 0.0 | 0.00 | 0.00 | 0.00 | 75 | 999.1 |
| 20260904222049 | 53 | 0 | 0.0 | 0.0 | 0.00 | 0.00 | 0.00 | 75 | 999.1 |
| 20260904221605 | 53 | 0 | 0.0 | 2.0 | 0.00 | 0.00 | 0.00 | 75 | 999.1 |
| 20260904221045 | 53 | 0 | 0.0 | 2.0 | 0.00 | 0.00 | 0.00 | 75 | 999.1 |
| 20260904220542 | 53 | 338 | 0.0 | 0.0 | 0.00 | 0.00 | 0.00 | 75 | 999.1 |
| 20260904220116 | 53 | 0 | 0.0 | 2.0 | 0.00 | 0.00 | 0.00 | 75 | 999.2 |
| 20260904215542 | 53 | 0 | 0.0 | 3.0 | 0.00 | 0.00 | 0.00 | 75 | 999.1 |
| 20260904215042 | 53 | 5 | 1.0 | 3.0 | 0.00 | 0.00 | 0.00 | 75 | 999.0 |
| 20260904214603 | 53 | 5 | 0.0 | 2.0 | 0.00 | 0.00 | 0.00 | 75 | 999.1 |
| 20260904214045 | 53 | 0 | 1.0 | 2.0 | 0.00 | 0.00 | 0.00 | 75 | 999.1 |
| 20260904213542 | 53 | 5 | 0.0 | 3.0 | 0.00 | 0.00 | 0.00 | 75 | 999.1 |
| 20260904213055 | 53 | 0 | 1.0 | 3.0 | 0.00 | 0.00 | 0.00 | 75 | 999.1 |
| 20260904212542 | 53 | 0 | 0.0 | 2.0 | 0.00 | 0.00 | 0.00 | 75 | 999.2 |
| 20260904212041 | 53 | 0 | 0.0 | 3.0 | 0.00 | 0.00 | 0.00 | 74 | 999.1 |
| 20260904211608 | 53 | 9 | 0.0 | 3.0 | 0.00 | 0.00 | 0.00 | 74 | 999.1 |
| 20260904211044 | 54 | 0 | 0.0 | 3.0 | 0.00 | 0.00 | 0.00 | 75 | 999.1 |
| 20260904210542 | 54 | 0 | 1.0 | 3.0 | 0.00 | 0.00 | 0.00 | 75 | 999.2 |
| 20260904210104 | 54 | 352 | 0.0 | 2.0 | 0.00 | 0.00 | 0.00 | 74 | 999.1 |
| 20260904205542 | 54 | 0 | 0.0 | 0.0 | 0.00 | 0.00 | 0.00 | 74 | 999.2 |
| 20260904205045 | 54 | 0 | 0.0 | 0.0 | 0.00 | 0.00 | 0.00 | 74 | 999.2 |
| 20260904204555 | 54 | 0 | 0.0 | 0.0 | 0.00 | 0.00 | 0.00 | 74 | 999.1 |
| 20260904204042 | 54 | 0 | 0.0 | 0.0 | 0.00 | 0.00 | 0.00 | 74 | 999.1 |
| 20260904203542 | 54 | 0 | 0.0 | 0.0 | 0.00 | 0.00 | 0.00 | 74 | 999.2 |